Location: New Frontier Mobile Home Park
(32.8448°N, 116.9675°W)
Time: 23:07:37
(UTC+00:00)

CZ-2C R/B - Pass Details

Date: 14 July 2020
Orbit: 503 x 566 km, 97.7° (Epoch: 05 August)

Event Time Altitude Azimuth Distance (km) Brightness Sun altitude
Rises 11:46:26 0° 358° (N) 2,768 6.9 -12.3°
Reaches altitude 10° 11:48:49 10° 346° (NNW) 1,865 5.8 -11.9°
Maximum altitude 11:52:14 27° 288° (WNW) 1,098 4.0 -11.3°
Enters shadow 11:54:39 15° 239° (WSW) 1,522 4.4 -10.9°
